This demonstration page uses our WeatherBlox Daily Observations layout. Learn more.

Left ArrowRight Arrow

36.19886, -115.1175

Hourly Observations for June 28, 2021

Temp ( °F °C ) Dew Point ( °F °C ) Humidity (%) Winds ( mph kmh ) Pressure ( in mb ) Visibility ( mi km ) Precip ( " mm )
12:53 am 00:53 Clear 95 35 39 3.9 14 14 NE 8 13 29.65 1004 10 16 N/A
1:53 am 01:53 Clear 98 36.7 38 3.3 12 12 NE 18 30 29.65 1004 10 16 N/A
2:53 am 02:53 Clear 96 35.6 35 1.7 12 12 ENE 15 24 29.67 1005 10 16 N/A
3:53 am 03:53 Clear 96 35.6 34 1.1 11 11 ENE 14 22 29.69 1006 10 16 N/A
4:53 am 04:53 Clear 94 34.4 35 1.7 13 13 ENE 12 19 29.72 1006 10 16 N/A
5:53 am 05:53 Sunny 92 33.3 35 1.7 13 13 NE 8 13 29.74 1007 10 16 N/A
6:53 am 06:53 Sunny 94 34.4 37 2.8 14 14 ENE 8 13 29.75 1008 10 16 N/A
7:53 am 07:53 Sunny 97 36.1 36 2.2 12 12 ENE 12 19 29.76 1008 10 16 N/A
8:53 am 08:53 Sunny 98 36.7 37 2.8 12 12 ENE 14 22 29.77 1008 10 16 N/A
9:53 am 09:53 Sunny 99 37.2 37 2.8 12 12 ENE 16 26 29.77 1008 10 16 N/A
10:53 am 10:53 Sunny 99 37.2 37 2.8 12 12 NE 13 20 29.77 1008 10 16 N/A
11:53 am 11:53 Sunny 101 38.3 37 2.8 11 11 NE 10 17 29.75 1008 10 16 N/A
12:53 pm 12:53 Sunny 103 39.4 37 2.8 10 10 ENE 8 13 29.73 1007 10 16 N/A
1:53 pm 13:53 Sunny 106 41.1 37 2.8 9 9 E 12 19 29.70 1006 10 16 N/A
2:53 pm 14:53 Sunny 105 40.6 37 2.8 10 10 N N/A 29.67 1005 10 16 N/A
3:53 pm 15:53 Sunny 106 41.1 37 2.8 9 9 VRB 3 6 29.65 1004 10 16 N/A
4:53 pm 16:53 Sunny 107 41.7 37 2.8 9 9 ESE 10 17 29.63 1003 10 16 N/A
5:53 pm 17:53 Sunny 106 41.1 37 2.8 9 9 undefined N/A 29.62 1003 10 16 N/A
6:53 pm 18:53 Sunny 105 40.6 37 2.8 10 10 VRB 6 9 29.61 1003 10 16 N/A
7:53 pm 19:53 Sunny 104 40 37 2.8 10 10 E 5 7 29.61 1003 10 16 N/A
8:53 pm 20:53 Clear 102 38.9 37 2.8 10 10 N N/A 29.63 1003 10 16 N/A
9:53 pm 21:53 Clear 100 37.8 40 4.4 13 13 N N/A 29.64 1004 10 16 N/A
10:53 pm 22:53 Clear 96 35.6 42 5.6 15 15 WNW 6 9 29.65 1004 10 16 N/A
11:53 pm 23:53 Clear 92 33.3 42 5.6 18 18 NW 5 7 29.66 1004 10 16 N/A

Powered by AerisWeather